This is the latest recevied weather packets stored in our database for station/object NZ3C. If no packets are shown the sender has not sent any weather packets the latest 10 day(s).
| Time | Temp. | Humidity | Pressure | Rain* | Wind** | Luminosity | Snow |
|---|---|---|---|---|---|---|---|
| 1777908784 | 24.44° C | 41% | 1018.3 hPa | 0 mm | - | 802 W/m² | - |
| 1777908480 | 23.89° C | 43% | 1018.2 hPa | 0 mm | - | 797 W/m² | - |
| 1777908177 | 23.33° C | 42% | 1018.2 hPa | 0 mm | - | 787 W/m² | - |
| 1777907874 | 23.33° C | 44% | 1018.4 hPa | 0 mm | - | 778 W/m² | - |
| 1777907569 | 22.78° C | 45% | 1018.6 hPa | 0 mm | - | 767 W/m² | - |
| 1777907265 | 23.33° C | 43% | 1018.7 hPa | 0 mm | - | 757 W/m² | - |
| 1777906962 | 22.78° C | 45% | 1018.6 hPa | 0 mm | - | 742 W/m² | - |
| 1777906660 | 23.33° C | 45% | 1018.6 hPa | 0 mm | - | 734 W/m² | - |
| 1777906356 | 22.78° C | 46% | 1018.6 hPa | 0 mm | - | 721 W/m² | - |
| 1777906052 | 22.22° C | 46% | 1018.7 hPa | 0 mm | - | 710 W/m² | - |
| 1777905749 | 22.22° C | 47% | 1018.7 hPa | 0 mm | - | 699 W/m² | - |
| 1777905446 | 22.78° C | 46% | 1018.7 hPa | 0 mm | - | 685 W/m² | - |
| 1777905144 | 22.78° C | 48% | 1018.7 hPa | 0 mm | - | 671 W/m² | - |
| 1777904840 | 22.22° C | 50% | 1018.7 hPa | 0 mm | - | 657 W/m² | - |
| 1777904538 | 22.22° C | 50% | 1018.6 hPa | 0 mm | - | 647 W/m² | - |
| 1777904234 | 21.67° C | 50% | 1018.6 hPa | 0 mm | - | 630 W/m² | - |
| 1777903931 | 21.67° C | 53% | 1018.5 hPa | 0 mm | - | 613 W/m² | - |
| 1777903629 | 21.11° C | 50% | 1018.7 hPa | 0 mm | - | 598 W/m² | - |
| 1777903329 | 20.56° C | 54% | 1018.6 hPa | 0 mm | - | 585 W/m² | - |
| 1777903026 | 20° C | 55% | 1019 hPa | 0 mm | - | 570 W/m² | - |
| 1777902723 | 20° C | 57% | 1018.7 hPa | 0 mm | - | 554 W/m² | - |
| 1777902420 | 20° C | 54% | 1018.8 hPa | 0 mm | - | 536 W/m² | - |
| 1777902116 | 20.56° C | 53% | 1019.1 hPa | 0 mm | - | 519 W/m² | - |
| 1777901815 | 20.56° C | 56% | 1018.9 hPa | 0 mm | - | 509 W/m² | - |
| 1777901512 | 20° C | 56% | 1018.9 hPa | 0 mm | - | 492 W/m² | - |
* Rain latest hour (hover to see other rain measurements)
** Current wind speed in m/s (hover to see current wind gust speed)